P/2004 A1 ( LONEOS )

Japanese version
Home page
Updated on December 4, 2007

---------------------------------------------------------------------

* Profile

Discovery Date January 13, 2004
Magnitude 18.4 mag
Discoverer B. Skiff (LONEOS)

* Orbital Elements

The following orbital elements are taken from MPC 60921:

Epoch 2004 Aug. 23.0 TT = JDT 2453240.5
T 2004 Aug. 25.8379 TT                                  MPC
q   5.462523             (2000.0)            P               Q
n   0.0444220      Peri.   20.4848      -0.8215450      -0.5500840
a   7.895942       Node   125.2459      +0.4942143      -0.8181773
e   0.308186       Incl.   10.5768      +0.2842816      -0.1673125
P  22.2
From 495 observations 2003 Oct. 25-2007 Aug. 7, mean residual 0".7.

* Finding Charts

* Magnitudes Graph

        m1 = -0.5 + 5 log d + 20 log r(t - 200)

---------------------------------------------------------------------

The orbital elements are published at the MPC Ephemerides and Orbital Elements.
The charts are made with StellaNavigator Ver.2.0 for Windows (AstroArts / ASCII).
The magnitudes graphs are made with Comet for Windows.

---------------------------------------------------------------------

Copyright(C) Seiichi Yoshida (comet@aerith.net). All rights reserved.